Menomonie, WI

11:16 AM CST on December 12, 2019 (GMT -0600)
Menomonie

Weather History for KLUM - October, 2019

Change the Weather History Date:

Saturday, October 12, 2019

  Actual Average (KEAU) Record (KEAU)
Temperature  
Mean Temperature 32 °F -  
Max Temperature 36 °F 57 °F 86 °F (1995)
Min Temperature 29 °F 36 °F 20 °F (1988)
Degree Days  
Heating Degree Days 33    
Moisture  
Dew Point 27 °F    
Average Humidity 81    
Maximum Humidity 94    
Minimum Humidity 69    
Precipitation  
Precipitation 0.00 in - - ()
Sea Level Pressure  
Sea Level Pressure 29.65 in    
Wind  
Wind Speed 16 mph (SSW)    
Max Wind Speed 20 mph    
Max Gust Speed 33 mph    
Visibility 9 miles    
Events Rain , Snow    
Averages and records for this station are not official NWS values.
T = Trace of Precipitation, MM = Missing Value Source: NWS Daily Summary

Daily Weather History Graph

Daily Weather History Graph

Search for Another Location

Airport or City:

Astronomy

Oct. 12, 2019 Rise Set
Actual Time 7:18 AM CDT 6:28 PM CDT
Civil Twilight 6:49 AM CDT 6:57 PM CDT
Nautical Twilight 6:15 AM CDT 7:31 PM CDT
Astronomical Twilight 5:41 AM CDT 8:05 PM CDT
Moon 6:29 PM CDT 5:50 AM CDT
Length of Visible Light 12h 08m
Length of Day
11h 09m
Waxing Gibbous, 99% of the Moon is Illuminated
Oct 12
Waxing Gibbous
Oct 13
Full
Oct 21
Last Quarter
Oct 27
New
Nov 4
First Quarter

Hourly Weather History & Observations

Time (CDT) Temp. Windchill Dew Point Humidity Pressure Visibility Wind Dir Wind Speed Gust Speed Precip Events Conditions
12:15 AM 32.0 °F 20.8 °F 25.9 °F 78% 29.75 in 10.0 mi SSW 17.3 mph 24.2 mph N/A   Overcast
12:35 AM 32.0 °F 20.8 °F 25.7 °F 78% 29.74 in 10.0 mi SSW 17.3 mph - N/A   Overcast
12:55 AM 32.2 °F 21.4 °F 26.2 °F 79% 29.74 in 10.0 mi SSW 16.1 mph 25.3 mph N/A   Overcast
1:15 AM 32.5 °F 21.9 °F 25.5 °F 75% 29.73 in 10.0 mi SSW 16.1 mph 27.6 mph N/A   Overcast
1:35 AM 32.5 °F 21.9 °F 25.3 °F 75% 29.73 in 10.0 mi SSW 16.1 mph 20.7 mph N/A   Overcast
1:55 AM 32.7 °F 21.1 °F 25.3 °F 74% 29.72 in 10.0 mi SSW 19.6 mph 24.2 mph N/A   Overcast
2:15 AM 32.9 °F 23.2 °F 25.3 °F 74% 29.72 in 10.0 mi SSW 13.8 mph 24.2 mph N/A   Overcast
2:35 AM 33.1 °F 22.2 °F 25.0 °F 72% 29.71 in 10.0 mi SSW 17.3 mph 24.2 mph N/A   Overcast
2:55 AM 33.1 °F 23.4 °F 24.8 °F 72% 29.71 in 10.0 mi SSW 13.8 mph 24.2 mph N/A   Overcast
3:15 AM 32.9 °F 22.8 °F 23.7 °F 69% 29.71 in 10.0 mi SW 15.0 mph 27.6 mph N/A   Overcast
3:35 AM 32.4 °F 20.9 °F 23.7 °F 70% 29.71 in 10.0 mi SSW 18.4 mph 28.8 mph N/A   Overcast
3:55 AM 32.0 °F 20.1 °F 23.4 °F 70% 29.70 in 10.0 mi SSW 19.6 mph 33.4 mph N/A   Overcast
4:15 AM 32.0 °F 20.5 °F 23.7 °F 71% 29.70 in 10.0 mi SSW 18.4 mph 26.5 mph N/A   Overcast
4:35 AM 31.1 °F 20.1 °F 23.4 °F 73% 29.70 in 10.0 mi SSW 16.1 mph 26.5 mph N/A   Mostly Cloudy
4:55 AM 30.2 °F 18.9 °F 23.4 °F 76% 29.70 in 10.0 mi South 16.1 mph 20.7 mph N/A   Mostly Cloudy
5:15 AM 30.0 °F 19.5 °F 23.2 °F 76% 29.70 in 10.0 mi SSW 13.8 mph 23.0 mph N/A   Mostly Cloudy
5:35 AM 30.0 °F 20.0 °F 23.0 °F 75% 29.70 in 10.0 mi SSW 12.7 mph 21.9 mph N/A   Mostly Cloudy
5:55 AM 30.0 °F 20.0 °F 23.2 °F 76% 29.69 in 10.0 mi SSW 12.7 mph 19.6 mph N/A   Overcast
6:15 AM 29.8 °F 18.9 °F 23.0 °F 76% 29.69 in 10.0 mi South 15.0 mph 21.9 mph N/A   Overcast
6:35 AM 29.8 °F 18.9 °F 23.0 °F 76% 29.68 in 10.0 mi South 15.0 mph 23.0 mph N/A   Overcast
6:55 AM 30.2 °F 18.9 °F 23.0 °F 75% 29.68 in 10.0 mi SSW 16.1 mph 23.0 mph N/A   Overcast
7:15 AM 30.2 °F 17.8 °F 23.0 °F 75% 29.68 in 10.0 mi SSW 19.6 mph 23.0 mph N/A   Overcast
7:35 AM 30.6 °F 19.0 °F 23.0 °F 74% 29.68 in 10.0 mi SSW 17.3 mph 23.0 mph N/A   Overcast
7:55 AM 30.7 °F 20.9 °F 23.2 °F 74% 29.67 in 10.0 mi SSW 12.7 mph 21.9 mph N/A   Overcast
8:15 AM 30.9 °F 19.8 °F 23.5 °F 74% 29.67 in 10.0 mi South 16.1 mph 25.3 mph N/A   Overcast
8:35 AM 31.1 °F 20.5 °F 23.9 °F 75% 29.66 in 10.0 mi SSW 15.0 mph 24.2 mph N/A Snow Light Snow
8:55 AM 31.5 °F 20.5 °F 24.1 °F 74% 29.66 in 10.0 mi South 16.1 mph 25.3 mph N/A Snow Light Snow
9:15 AM 31.1 °F 20.5 °F 24.3 °F 76% 29.65 in 7.0 mi South 15.0 mph 25.3 mph N/A Snow Light Snow
9:35 AM 30.6 °F 18.6 °F 25.5 °F 82% 29.64 in 2.0 mi SSW 18.4 mph 23.0 mph N/A Snow Light Snow
9:55 AM 31.1 °F 21.4 °F 27.3 °F 86% 29.64 in 2.5 mi South 12.7 mph - N/A Snow Light Snow
10:15 AM 31.5 °F 21.8 °F 28.0 °F 87% 29.64 in 3.0 mi South 12.7 mph 18.4 mph N/A Snow Light Snow
10:35 AM 31.6 °F 20.7 °F 28.4 °F 88% 29.64 in 4.0 mi South 16.1 mph - N/A Snow Light Snow
10:55 AM 31.5 °F 22.3 °F 28.4 °F 88% 29.63 in 4.0 mi South 11.5 mph 19.6 mph N/A Snow Light Snow
11:15 AM 31.6 °F 23.7 °F 28.0 °F 87% 29.63 in 10.0 mi South 9.2 mph - N/A   Overcast
11:35 AM 32.0 °F 23.0 °F 27.7 °F 84% 29.63 in 10.0 mi SSW 11.5 mph 17.3 mph N/A   Overcast
11:55 AM 32.9 °F 23.7 °F 27.1 °F 79% 29.63 in 10.0 mi South 12.7 mph 21.9 mph N/A   Overcast
12:15 PM 33.1 °F 23.4 °F 27.1 °F 79% 29.63 in 10.0 mi SSW 13.8 mph 20.7 mph N/A   Overcast
12:35 PM 33.8 °F 23.5 °F 26.8 °F 75% 29.63 in 10.0 mi SSW 16.1 mph 21.9 mph N/A   Overcast
12:55 PM 33.8 °F 23.5 °F 26.4 °F 74% 29.63 in 10.0 mi SSW 16.1 mph 23.0 mph N/A   Overcast
1:15 PM 34.3 °F 23.5 °F 26.6 °F 73% 29.62 in 10.0 mi SSW 18.4 mph 25.3 mph N/A   Overcast
1:35 PM 35.8 °F 26.5 °F 27.9 °F 73% 29.61 in 10.0 mi SSW 15.0 mph - N/A   Overcast
1:55 PM 35.4 °F 24.6 °F 27.5 °F 73% 29.60 in 10.0 mi South 19.6 mph 24.2 mph N/A   Overcast
2:35 PM 34.7 °F 24.3 °F 28.6 °F 78% 29.60 in 10.0 mi South 17.3 mph 21.9 mph N/A Rain Light Rain
2:55 PM 34.9 °F 25.7 °F 28.9 °F 79% 29.60 in 10.0 mi South 13.8 mph 24.2 mph N/A Rain Light Rain
3:15 PM 34.2 °F 24.0 °F 29.3 °F 82% 29.60 in 10.0 mi SSW 16.1 mph 24.2 mph N/A Rain Light Rain
3:35 PM 33.8 °F 23.5 °F 28.9 °F 82% 29.60 in 10.0 mi SSW 16.1 mph 20.7 mph N/A Rain Light Rain
3:55 PM 33.6 °F 22.2 °F 29.1 °F 84% 29.60 in 10.0 mi SW 19.6 mph 23.0 mph N/A   Light Drizzle
4:15 PM 33.8 °F 23.9 °F 28.9 °F 82% 29.60 in 10.0 mi South 15.0 mph 20.7 mph N/A   Overcast
4:35 PM 34.0 °F 23.0 °F 29.1 °F 82% 29.60 in 10.0 mi SSW 18.4 mph 23.0 mph N/A   Overcast
4:55 PM 33.4 °F 24.3 °F 29.5 °F 85% 29.61 in 7.0 mi SSW 12.7 mph 23.0 mph N/A   Light Drizzle
5:15 PM 33.3 °F 22.8 °F 30.0 °F 88% 29.61 in 5.0 mi SSW 16.1 mph 21.9 mph N/A   Drizzle
5:35 PM 33.1 °F 24.9 °F 30.4 °F 90% 29.61 in 10.0 mi SSW 10.4 mph 16.1 mph N/A Rain Light Rain
5:55 PM 33.1 °F 23.4 °F 30.2 °F 89% 29.62 in 10.0 mi SSW 13.8 mph 20.7 mph N/A Rain Light Rain
6:15 PM 32.7 °F 23.0 °F 30.0 °F 90% 29.61 in 5.0 mi SSW 13.8 mph - N/A Rain Light Rain
6:35 PM 33.1 °F 22.6 °F 30.0 °F 89% 29.62 in 10.0 mi SSW 16.1 mph 20.7 mph N/A   Overcast
6:55 PM 33.1 °F 23.0 °F 30.2 °F 89% 29.62 in 10.0 mi SSW 15.0 mph - N/A Rain Light Rain
7:15 PM 33.1 °F 23.4 °F 30.0 °F 89% 29.62 in 10.0 mi SSW 13.8 mph 17.3 mph N/A Rain Light Rain
7:35 PM 32.7 °F 22.5 °F 30.0 °F 90% 29.63 in 5.0 mi SSW 15.0 mph - N/A Rain Light Rain
7:55 PM 32.2 °F 22.7 °F 30.7 °F 94% 29.63 in 10.0 mi SSW 12.7 mph 20.7 mph N/A Rain Light Rain
8:15 PM 32.4 °F 22.5 °F 30.7 °F 94% 29.63 in 7.0 mi SW 13.8 mph 20.7 mph N/A Rain Light Rain
8:35 PM 32.4 °F 21.7 °F 30.6 °F 93% 29.63 in 10.0 mi SW 16.1 mph 24.2 mph N/A Rain Light Rain
8:55 PM 32.2 °F 22.3 °F 30.2 °F 92% 29.63 in 10.0 mi SW 13.8 mph 18.4 mph N/A   Mostly Cloudy
9:15 PM 32.5 °F 22.7 °F 30.6 °F 92% 29.63 in 10.0 mi SW 13.8 mph 18.4 mph N/A   Overcast
9:35 PM 32.9 °F 22.8 °F 30.2 °F 90% 29.63 in 10.0 mi SW 15.0 mph 20.7 mph N/A   Overcast
9:55 PM 33.1 °F 23.9 °F 30.0 °F 89% 29.63 in 10.0 mi SW 12.7 mph 24.2 mph N/A   Overcast
10:15 PM 33.1 °F 23.4 °F 29.8 °F 88% 29.63 in 10.0 mi SW 13.8 mph - N/A   Overcast
10:35 PM 33.3 °F 24.6 °F 30.0 °F 88% 29.63 in 10.0 mi SW 11.5 mph 17.3 mph N/A   Overcast
10:55 PM 33.4 °F 24.8 °F 29.8 °F 87% 29.63 in 10.0 mi WSW 11.5 mph 18.4 mph N/A   Overcast
11:15 PM 33.4 °F 25.4 °F 29.5 °F 85% 29.63 in 10.0 mi SSW 10.4 mph - N/A   Overcast
11:35 PM 33.4 °F 24.3 °F 29.5 °F 85% 29.63 in 10.0 mi SSW 12.7 mph 16.1 mph N/A   Overcast
11:55 PM 33.1 °F 23.9 °F 29.7 °F 87% 29.63 in 7.0 mi SW 12.7 mph 17.3 mph N/A   Overcast